Location: Feydey
(46.3431°N, 7.0106°E)
Time: 07:11:50
(UTC+00:00)

deb Atmosphere 2 - Pass Details

Date: 03 February 2022
Orbit: 828 x 839 km, 98.6° (Epoch: 21 May)

Event Time Altitude Azimuth Distance (km) Brightness Sun altitude
Rises 17:18:18 0° 208° (SSW) 3,382 ? -7.2°
Reaches altitude 10° 17:21:23 10° 226° (SW) 2,454 ? -7.7°
Maximum altitude 17:25:07 19° 270° (W) 1,917 ? -8.3°
Drops below altitude 10° 17:28:53 10° 314° (NW) 2,466 ? -8.9°
Sets 17:32:01 0° 332° (NNW) 3,405 ? -9.4°
